Temp
18 17 17 17 17 17 17 17 17 16 16 16 16 16 15 15 14 14 14 13 13 13 13 13 13 12 12 12 12 11 11 10 10 10 10 10 10 10 9 9 9 9
17 17 17 17 17 17 17 17 17 16 16 16 16 16 15 14 14 14 14 13 13 13 13 12 12 12 12 12 11 11 11 10 10 10 10 10 10 9 9 9 9 9
17 17 17 17 17 17 17 16 16 16 16 16 16 15 15 14 14 14 13 13 13 13 13 12 12 12 12 11 11 11 10 10 10 10 10 10 10 9 9 9 9 9
17 17 17 17 17 17 17 16 16 16 16 16 16 15 15 14 14 14 13 13 13 13 13 12 12 12 11 11 11 10 10 10 10 10 10 10 9 9 9 9 9 8
17 17 17 17 17 17 16 16 16 16 16 15 15 15 15 14 14 14 13 13 13 13 12 12 12 11 11 11 11 10 10 10 10 10 10 9 9 9 9 9 9 8
17 17 17 17 17 16 16 16 16 16 16 15 15 15 15 14 14 14 14 13 13 12 12 12 11 11 11 11 10 10 10 10 10 10 10 9 9 9 9 9 8 8
17 17 17 17 17 16 16 16 16 16 15 15 15 14 14 14 14 14 13 13 12 12 12 11 11 11 11 10 10 10 10 10 10 9 9 9 9 9 9 9 8 8
17 17 17 17 17 16 16 16 16 15 15 15 14 14 14 14 13 13 13 12 12 12 11 11 11 11 10 10 10 10 10 9 9 9 9 9 9 9 9 8 8 8
17 17 17 17 16 16 16 15 15 15 15 14 14 14 14 13 13 13 12 12 11 11 11 11 11 10 10 10 10 10 9 9 9 9 8 8 8 8 8 8 8 8
16 17 16 16 16 16 15 15 15 15 14 14 14 13 13 13 13 12 12 11 11 11 11 11 10 10 10 10 10 9 9 9 9 8 8 8 8 8 8 8 8 8
16 16 16 16 16 15 15 15 15 14 14 14 13 13 13 13 12 12 11 11 11 11 10 10 10 10 10 9 9 9 9 9 8 8 8 8 8 7 7 7 7 7
15 15 15 15 15 15 15 15 15 14 14 13 13 13 13 12 12 11 11 11 11 10 10 10 10 10 9 9 9 9 8 8 8 8 8 8 7 7 7 7 7 7
15 15 15 15 15 15 14 14 14 14 14 13 13 13 12 12 11 11 11 11 10 10 10 10 9 9 9 9 8 8 8 8 8 7 7 7 7 7 7 6 6 6
14 15 15 14 14 14 14 14 14 14 13 13 13 12 12 11 11 11 11 10 10 10 10 9 9 9 8 8 8 8 7 7 7 7 7 6 6 6 6 6 6 6
13 13 13 13 13 13 13 14 13 13 13 13 12 12 12 11 11 11 10 10 10 10 9 9 8 8 8 8 7 7 7 6 6 6 6 6 6 6 6 6 6 6
12 12 12 12 12 12 12 13 13 13 13 12 12 12 11 11 11 10 10 10 10 9 9 8 8 8 7 7 7 6 6 6 6 6 6 5 5 5 5 5 5 5
13 12 11 11 11 11 12 13 13 13 12 12 12 11 11 11 11 10 10 10 9 9 8 8 8 7 7 7 7 6 6 5 5 5 5 5 5 5 5 5 5 5
13 12 11 11 12 13 13 13 12 12 12 12 12 11 11 11 10 10 10 9 9 9 8 8 8 7 7 7 7 6 6 5 5 5 4 4 4 4 4 4 4 4
13 12 11 12 13 13 13 12 12 12 12 12 11 11 11 10 10 10 9 9 9 8 8 8 8 7 7 7 6 6 5 5 5 4 4 4 4 4 4 4 4 4
13 12 12 12 12 12 12 12 12 12 12 11 11 11 10 10 10 9 9 9 8 8 8 8 7 7 7 6 6 5 5 5 4 4 4 4 4 4 3 3 3 3
12 12 11 11 11 12 12 12 12 12 11 11 11 11 10 10 10 9 9 8 8 8 8 8 7 7 6 6 5 5 5 4 4 4 4 3 3 3 3 3 3 3
11 11 11 11 11 12 12 12 11 11 11 11 10 10 10 9 9 9 8 8 8 8 8 7 7 6 6 5 5 5 4 4 4 3 3 3 3 3 3 2 2 2
11 10 10 11 11 11 11 11 11 11 11 11 10 10 9 9 9 8 8 8 8 7 7 7 6 6 5 5 5 4 4 3 3 3 2 2 2 2 2 2 2 2
10 9 10 11 11 11 11 11 11 10 10 10 10 9 9 9 9 8 8 8 8 7 6 6 6 5 5 5 4 4 4 3 2 2 1 1 1 1 1 1 1 1
9 10 10 11 10 10 10 10 10 10 10 10 9 9 9 9 8 8 8 8 7 6 6 5 5 5 5 4 4 4 3 3 2 1 1 1 0 0 0 0 0 0
9 9 9 9 9 9 10 10 10 10 9 9 9 9 9 9 8 8 8 7 7 6 6 5 5 5 5 4 4 3 3 2 1 1 0 0 -0 -0 -0 -0 -0 -1
Height
799 800 802 803 805 806 807 809 810 811 811 812 813 814 815 816 816 817 818 818 819 819 819 819 819 819 819 819 819 819 819 819 820 820 820 820 819 819 819 819 818 818
797 798 800 802 803 805 806 807 808 809 810 811 812 813 814 815 815 816 817 817 818 818 818 818 819 819 819 819 819 819 819 819 819 820 820 820 820 819 819 819 818 818
796 797 798 799 801 802 804 805 807 808 809 810 811 812 813 813 814 815 816 816 816 817 817 817 818 818 818 818 818 818 818 818 819 819 819 819 819 819 819 818 818 817
794 795 796 798 799 800 802 804 805 806 807 808 809 811 811 812 813 814 814 815 815 816 816 816 816 816 817 817 817 817 817 817 817 818 818 818 818 818 818 817 817 817
792 794 795 796 797 799 800 801 802 804 805 807 808 809 810 811 812 813 813 814 814 815 815 815 815 815 816 816 816 816 816 816 816 816 816 816 817 817 816 816 816 815
791 792 793 795 796 797 798 799 800 802 803 805 806 807 808 809 810 811 812 813 813 814 814 814 814 814 815 815 815 815 814 814 814 814 814 814 814 814 814 814 814 813
788 790 791 792 794 795 796 796 798 799 801 803 804 805 806 807 809 810 811 812 812 813 813 813 814 814 814 814 814 814 813 813 813 813 813 812 812 812 812 812 811 811
785 787 788 790 791 791 793 794 795 797 799 800 802 803 804 805 807 808 809 810 811 812 812 812 813 813 813 813 813 813 813 812 812 812 811 811 811 811 810 810 810 809
782 784 785 786 787 788 789 791 793 794 796 798 799 801 803 804 805 807 808 809 810 810 811 811 812 812 812 812 812 812 812 811 811 811 810 810 810 809 809 809 808 807
779 780 782 783 784 785 787 788 790 792 794 796 798 799 801 803 804 805 806 807 808 809 809 810 810 811 811 811 811 811 811 811 810 810 809 809 808 808 808 807 807 806
776 777 779 780 782 783 785 786 788 790 792 794 796 798 800 801 802 803 804 805 806 807 808 809 809 809 810 810 810 810 810 810 809 809 808 808 807 807 806 806 805 804
772 774 775 777 779 781 783 785 786 788 790 792 795 797 799 800 801 802 802 803 805 806 807 807 808 808 808 809 809 809 809 808 808 808 807 806 806 805 805 804 804 803
768 769 770 773 775 778 782 784 785 787 789 791 794 796 798 799 800 801 801 802 803 804 805 806 807 807 807 807 807 807 807 807 806 806 805 804 804 803 803 802 802 801
766 766 767 769 772 775 779 782 784 785 788 791 793 795 797 799 800 800 800 800 801 802 803 804 805 806 806 806 806 806 806 805 805 804 803 802 802 801 800 800 799 799
770 769 768 768 769 770 773 778 782 784 787 789 791 793 795 797 798 799 799 799 800 801 802 803 803 804 805 805 805 804 804 803 803 802 801 800 799 798 797 797 796 796
768 769 769 768 767 768 771 775 780 783 786 788 789 791 794 796 797 798 798 798 799 799 800 801 802 802 803 803 803 802 802 801 800 799 799 797 796 795 794 793 793 793
762 764 766 768 769 770 774 778 780 783 786 787 788 790 793 795 796 796 796 796 797 798 799 800 800 801 800 800 800 800 799 799 798 797 796 795 794 792 791 790 790 789
758 758 761 765 767 768 772 776 780 782 785 786 787 789 792 793 794 795 795 795 795 796 797 798 799 799 798 798 798 798 797 796 795 794 793 792 791 790 788 787 786 785
754 755 757 760 763 764 767 772 777 780 782 784 785 788 790 792 793 793 794 794 794 794 795 796 797 797 797 796 795 795 795 794 793 791 790 789 788 787 785 784 783 782
752 753 754 756 759 761 764 770 774 777 780 781 782 785 788 790 791 792 792 793 793 793 793 794 795 795 795 794 793 793 792 791 790 788 787 786 785 783 782 780 779 778
750 750 752 754 756 758 762 767 771 774 775 777 779 782 785 787 789 790 791 791 791 791 791 792 793 794 793 793 792 791 790 788 786 784 783 782 780 779 778 776 775 774
748 748 749 750 752 754 758 763 767 770 771 773 776 779 782 784 786 787 788 789 789 789 789 790 791 791 791 791 790 789 786 784 783 780 779 777 776 775 773 772 771 770
745 747 748 749 749 752 756 760 763 767 769 771 774 777 780 782 783 785 786 786 787 787 787 788 789 789 789 789 787 786 783 781 779 776 775 773 771 770 768 767 766 766
743 745 747 747 747 749 753 756 761 765 767 770 773 776 778 780 781 783 783 784 785 786 786 786 786 787 787 786 785 783 780 778 775 772 770 768 766 765 764 763 762 762
741 743 744 744 745 747 749 753 759 764 767 770 773 776 777 779 780 780 781 782 783 784 784 784 784 784 785 783 782 780 778 775 772 769 766 763 762 760 759 758 758 757
741 743 744 744 746 749 751 753 758 763 767 770 773 775 776 778 778 779 779 780 781 781 782 782 782 782 782 780 779 777 775 772 769 766 763 760 758 756 755 754 753 753
Wind_Speed
26 25 24 23 23 23 22 20 18 16 15 13 12 11 9 7 6 6 7 7 7 7 7 7 9 10 10 10 10 10 10 10 10 10 10 10 11 11 11 12 12 12
28 26 25 24 24 24 23 22 20 18 16 15 14 12 9 9 9 9 8 8 8 7 7 8 10 10 9 10 11 11 11 10 9 8 9 9 10 10 10 11 12 13
29 28 27 26 26 26 25 24 22 19 18 17 15 13 11 11 11 10 10 9 8 8 9 10 10 9 9 10 12 12 12 12 10 9 9 9 10 10 11 12 12 13
31 29 28 28 28 27 26 25 24 21 20 19 17 14 14 13 12 11 11 10 9 10 11 11 11 9 10 11 12 12 12 12 12 11 11 11 11 12 12 13 13 12
33 30 29 29 29 29 27 26 26 24 22 21 18 17 16 15 14 13 12 11 11 10 11 11 10 10 11 12 13 13 13 12 13 13 13 13 12 13 13 14 14 13
34 31 30 31 31 30 29 28 27 25 23 22 21 19 19 18 17 15 14 12 10 10 10 9 9 10 11 13 13 13 13 13 14 14 14 14 15 15 14 14 15 15
36 33 32 32 32 31 30 29 27 26 25 24 23 22 21 20 18 16 14 11 9 9 9 8 9 11 12 13 13 13 13 14 14 14 15 16 16 16 16 15 16 17
37 35 34 34 33 32 31 29 28 27 25 25 24 23 22 21 19 16 12 10 9 8 7 8 10 11 11 12 12 12 12 12 13 14 15 16 17 17 17 17 18 19
38 37 36 36 35 34 33 31 29 27 26 25 25 24 23 20 17 14 11 9 8 8 7 9 10 10 10 10 10 11 11 11 12 13 15 16 17 18 18 19 19 20
38 38 38 37 37 36 34 32 30 27 26 26 25 24 22 19 15 13 11 9 9 8 8 9 9 8 9 10 10 11 11 12 13 14 15 16 17 17 18 19 19 19
37 38 38 38 38 36 34 33 30 28 26 26 25 23 20 17 15 13 11 10 9 9 9 8 7 8 9 10 11 12 13 14 15 16 17 18 19 19 18 18 19 20
37 37 38 38 37 36 34 32 30 27 26 26 25 22 18 16 15 13 11 10 9 9 8 7 7 8 9 10 11 12 13 14 15 17 18 19 20 21 20 19 19 19
39 39 39 39 38 36 34 32 29 27 26 25 23 19 17 16 14 12 11 10 9 8 6 7 7 7 8 9 10 11 13 14 16 17 18 19 20 21 21 21 21 21
36 38 38 37 36 35 33 31 29 27 25 24 20 18 16 15 13 12 11 9 7 6 5 6 6 6 7 8 10 11 13 14 16 17 19 20 20 21 21 21 22 23
25 27 30 32 34 35 34 32 29 26 24 22 19 17 15 14 13 12 10 8 6 5 4 4 5 6 7 8 10 12 14 15 17 18 20 21 22 22 22 22 22 23
22 22 25 27 29 30 30 29 27 24 23 21 18 16 15 14 13 12 9 7 5 4 4 5 5 6 7 9 11 14 16 18 19 20 21 21 23 23 24 24 23 24
25 24 23 23 22 22 23 23 23 22 21 20 18 16 15 15 13 11 9 7 5 5 5 5 5 6 9 12 14 16 17 19 20 22 22 22 23 23 24 24 24 24
28 26 23 23 24 24 25 24 23 23 22 20 18 17 16 14 13 11 9 7 6 6 6 5 6 9 12 14 15 17 18 19 20 22 23 24 25 25 26 26 26 26
29 28 27 28 29 29 29 27 26 25 23 21 18 17 15 14 13 11 9 7 7 6 4 5 8 11 13 15 16 18 20 21 22 22 24 26 27 28 28 27 27 28
30 30 30 31 31 30 29 28 27 25 23 20 18 17 15 14 13 11 9 7 6 4 4 7 10 12 14 15 16 19 22 23 24 25 26 27 28 28 28 28 28 28
30 31 31 32 32 31 29 28 28 27 24 21 18 17 16 15 13 10 8 6 5 4 5 8 10 13 14 15 17 20 23 25 26 28 29 29 29 29 29 29 29 29
31 31 32 34 34 33 33 32 30 27 24 21 18 17 16 14 12 9 7 5 4 4 6 8 10 12 13 15 18 22 25 26 28 29 30 29 29 29 29 30 29 29
32 31 32 35 36 35 34 32 29 25 22 20 19 18 15 13 10 7 5 4 5 5 5 8 10 12 14 17 21 24 26 27 29 29 29 29 29 29 29 29 29 29
31 31 33 36 37 36 34 30 26 24 22 19 18 16 13 10 7 5 4 5 5 5 6 9 11 12 15 20 24 26 27 28 29 29 29 29 29 29 29 28 28 28
30 32 36 38 37 35 32 28 24 21 19 16 13 11 9 7 5 4 5 6 5 5 7 10 12 14 18 23 26 28 28 28 28 28 29 29 29 29 28 28 27 28
27 29 31 31 30 28 25 23 21 18 16 14 11 8 6 5 5 5 6 6 6 7 9 10 12 16 21 26 28 29 28 28 28 28 29 29 29 28 28 29 29 31
Wind_Direction
208 208 211 215 220 225 226 227 228 228 230 233 236 239 240 241 240 247 257 260 261 268 287 306 319 322 326 339 344 343 341 342 344 345 348 351 352 351 350 348 347 342
210 211 214 216 219 223 228 229 230 231 232 234 239 239 236 236 240 246 252 252 255 268 286 303 311 315 326 338 338 336 334 332 335 335 336 341 343 343 344 343 342 339
212 213 215 217 219 222 226 229 230 232 233 233 235 237 235 234 237 241 244 250 263 278 292 304 310 317 329 334 333 333 332 330 332 329 327 331 333 333 335 335 335 333
215 216 218 219 221 224 227 228 228 230 230 230 231 233 234 233 234 237 242 252 269 283 295 303 310 317 325 326 327 329 330 328 327 324 323 324 325 326 329 330 331 329
217 218 221 222 223 225 226 226 228 228 227 227 228 229 231 231 233 236 243 255 269 283 295 301 306 313 317 319 322 324 324 324 322 318 316 317 320 323 326 328 328 327
218 220 223 225 226 226 226 226 226 226 225 224 224 225 226 228 231 237 244 254 268 282 291 296 302 307 309 312 316 318 318 317 316 314 312 314 319 322 324 325 326 326
218 220 223 226 226 226 226 225 224 224 224 222 221 221 222 222 226 233 239 248 264 278 286 292 296 299 302 306 310 312 314 315 314 313 313 315 319 320 322 322 323 323
219 221 223 225 226 225 224 223 223 222 221 219 217 218 218 218 222 225 228 238 255 266 274 283 288 291 294 299 302 306 311 314 316 316 315 317 317 317 318 318 318 318
220 221 223 224 224 223 222 221 221 220 218 216 214 213 213 214 216 215 216 228 240 247 258 270 277 280 284 289 294 300 307 309 313 314 315 317 317 316 315 313 312 313
220 220 222 223 223 222 221 220 219 218 216 214 211 209 209 209 208 208 212 221 227 234 246 256 262 268 277 286 292 299 304 306 308 309 309 311 312 313 314 310 307 307
220 220 221 222 223 222 221 219 217 215 214 211 208 206 206 205 203 204 210 217 223 232 239 244 255 268 278 288 295 300 303 304 305 305 305 305 305 306 307 306 303 303
221 221 221 223 223 222 221 218 215 213 211 207 205 205 204 203 202 204 210 216 222 228 237 249 264 277 286 292 297 299 301 301 301 302 302 303 303 303 302 300 300 300
222 222 223 223 222 221 219 216 213 211 207 203 202 204 203 202 203 206 210 214 219 227 246 266 276 284 290 293 297 299 301 302 303 303 303 302 302 301 299 297 296 296
227 225 223 220 219 217 215 213 209 206 203 201 200 201 203 205 207 208 208 209 218 237 259 269 276 282 287 294 302 306 308 308 307 306 304 302 300 298 297 296 295 295
243 235 226 219 216 212 207 205 203 200 198 199 199 200 203 207 209 209 207 210 223 243 252 255 262 275 292 306 313 316 316 313 310 306 303 300 298 296 296 294 294 294
248 243 233 223 212 203 197 196 195 196 197 197 197 200 203 205 207 208 211 219 228 234 235 242 257 280 305 317 322 321 318 313 309 305 301 298 297 296 295 293 293 292
236 234 228 217 203 192 191 194 194 196 199 198 197 199 201 204 208 211 216 221 224 227 234 246 271 300 315 321 323 323 321 317 311 306 302 298 297 296 295 295 294 292
229 223 212 205 199 194 195 199 199 198 198 198 197 197 200 205 210 214 216 219 225 231 240 262 295 313 320 323 326 329 331 327 318 310 305 301 298 297 296 296 294 292
224 217 205 201 201 196 193 194 195 195 196 196 194 195 200 206 210 214 216 221 227 231 250 294 316 320 321 325 327 331 333 329 321 315 308 303 300 297 295 294 292 290
219 212 204 199 197 191 186 186 188 192 195 194 191 193 199 205 208 212 216 220 227 241 288 319 325 322 322 325 325 325 327 324 319 313 307 303 300 297 294 292 289 288
214 207 198 193 188 183 181 184 189 192 191 188 189 194 200 205 207 209 212 217 234 272 308 324 329 326 323 322 319 321 323 321 316 311 305 301 298 295 293 291 289 287
214 203 194 187 182 179 180 184 188 189 186 184 186 191 195 198 199 203 210 226 254 285 310 323 327 325 320 317 319 323 324 321 315 309 303 298 295 293 291 290 289 286
214 201 189 182 178 177 179 182 184 184 182 182 184 185 187 189 192 199 220 253 269 286 309 319 320 319 318 320 325 328 325 320 314 308 302 297 294 292 291 289 288 286
210 194 184 179 177 177 178 177 178 177 176 178 182 182 181 183 189 205 241 262 269 283 305 312 312 316 324 328 330 330 326 320 314 308 302 298 295 293 291 290 288 287
200 188 183 180 175 172 169 165 164 165 165 168 173 173 171 179 196 228 250 255 261 281 297 305 311 320 330 333 333 332 328 321 315 308 302 299 297 296 294 291 289 288
190 183 177 169 160 155 152 150 150 153 155 157 160 160 166 188 222 244 251 250 258 278 291 301 313 325 334 337 336 333 327 321 315 307 302 300 298 297 295 293 291 289